Location: DARK SKY Beskydy - Park tmavé oblohy, www.darkskybeskydy.cz
(49.4926°N, 18.5016°E)
Time: 14:51:37
(UTC+01:00)

Vanguard 1 - Pass Details

Date: 18 November 2025
Orbit: 650 x 3821 km, 34.2° (Epoch: 07 December)

Event Time Altitude Azimuth Distance (km) Brightness Sun altitude
Rises 19:06:43 0° 264° (W) 7,381 15.7 -30.0°
Reaches altitude 10° 19:11:35 10° 260° (W) 6,607 15.1 -30.8°
Maximum altitude 19:32:46 49° 195° (SSW) 4,415 13.2 -34.2°
Enters shadow 19:42:20 34° 148° (SSE) 4,740 13.1 -35.8°
